SBONWEB Weather Reports


Display with metric or nautical units.
time (UTC)temp
F
wind
direction
speed
MPH
gust
MPH
rain 1hr
in
rain 24hr
in
rain mn
in
humidity
%
barometer
mb
20260507002703 51 7 6.0 9.0 0.01 1.05 0.02 93 1011.4
20260507002018 51 18 6.0 10.0 0.01 1.05 0.02 93 1011.4
20260507000903 51 18 5.0 10.0 0.01 1.05 0.02 93 1011.6
20260507000217 51 11 4.0 10.0 0.01 1.05 0.02 93 1011.4
20260506235618 51 338 4.0 9.0 0.01 1.05 0.02 92 1011.6
20260506234503 51 18 4.0 8.0 0.01 1.05 0.02 92 1011.5
20260506233604 51 24 7.0 10.0 0.01 1.05 0.02 91 1011.4
20260506232918 51 19 7.0 11.0 0.00 1.04 0.01 91 1011.2
20260506231803 51 8 7.0 11.0 0.00 1.04 0.01 92 1011.4
20260506230903 51 5 7.0 12.0 0.00 1.04 0.01 92 1011.4
20260506230003 51 13 8.0 15.0 0.01 1.04 0.01 92 1011.3
20260506225403 51 12 8.0 15.0 0.01 1.04 0.01 92 1011.3
20260506224719 52 13 9.0 14.0 0.01 1.04 0.01 92 1011.3
20260506223603 52 17 8.0 13.0 0.01 1.04 0.01 91 1011.3
20260506222703 52 17 7.0 12.0 0.01 1.04 0.01 91 1011.2
20260506222017 52 14 7.0 13.0 0.01 1.05 0.01 91 1011.2
20260506221117 52 7 6.0 14.0 0.01 1.06 0.01 91 1011.2
20260506220004 52 8 5.0 10.0 0.00 1.06 0.00 92 1011.2
20260506215617 52 9 5.0 10.0 0.00 1.06 1.06 92 1011.2
20260506214503 52 356 6.0 9.0 0.00 1.06 1.06 92 1011.1
20260506213818 52 18 7.0 10.0 0.00 1.08 1.06 92 1011.1
20260506212704 52 16 6.0 12.0 0.00 1.11 1.06 92 1011.2
20260506211803 52 7 4.0 10.0 0.00 1.13 1.06 93 1011.2
20260506210903 52 343 3.0 8.0 0.00 1.15 1.06 93 1011.2
20260506210003 52 299 4.0 10.0 0.00 1.15 1.06 93 1011.3
20260506205617 52 350 3.0 10.0 0.00 1.16 1.06 93 1011.1
20260506204503 52 22 4.0 7.0 0.00 1.17 1.06 93 1011.0
20260506203603 52 20 5.0 9.0 0.00 1.17 1.06 93 1010.9
20260506202704 52 4 5.0 8.0 0.00 1.19 1.06 93 1010.7
20260506201803 51 9 4.0 7.0 0.00 1.19 1.06 93 1010.8
20260506200903 51 21 4.0 8.0 0.00 1.19 1.06 93 1010.8
20260506200004 51 13 5.0 9.0 0.00 1.19 1.06 93 1010.6
20260506195404 51 11 4.0 9.0 0.00 1.19 1.06 94 1010.5
20260506194503 51 356 3.0 5.0 0.00 1.19 1.06 94 1010.4
20260506193603 51 29 1.0 4.0 0.00 1.19 1.06 94 1010.4
20260506192703 51 188 1.0 3.0 0.01 1.20 1.06 94 1010.5
20260506191804 51 221 2.0 3.0 0.01 1.20 1.06 94 1010.2
20260506190903 52 256 2.0 4.0 0.05 1.22 1.06 93 1009.9
20260506190217 52 249 1.0 4.0 0.10 1.23 1.06 93 1009.6
20260506185403 52 228 2.0 3.0 0.13 1.28 1.06 93 1009.7
20260506184503 52 338 2.0 5.0 0.15 1.31 1.06 92 1009.3
20260506183817 52 357 3.0 7.0 0.17 1.31 1.06 92 1009.1
20260506182918 52 27 3.0 7.0 0.22 1.31 1.05 91 1008.6
20260506182018 53 46 7.0 16.0 0.24 1.31 1.05 92 1008.3
20260506180903 53 67 3.0 12.0 0.22 1.31 1.01 91 1009.0
20260506180218 53 175 4.0 7.0 0.17 1.27 0.95 91 1009.6
20260506175403 54 141 6.0 10.0 0.14 1.26 0.92 89 1009.4
20260506174503 54 94 4.0 10.0 0.13 1.26 0.91 86 1008.7
20260506173817 54 124 3.0 8.0 0.10 1.24 0.88 90 1008.9
20260506172703 54 122 6.0 11.0 0.04 1.17 0.82 88 1008.7
20260506171803 55 9 7.0 14.0 0.02 1.16 0.80 85 1008.4
20260506170903 56 352 8.0 13.0 0.01 1.16 0.79 84 1008.4
20260506170004 56 9 6.0 14.0 0.00 1.20 0.78 82 1008.3
20260506165403 56 3 5.0 12.0 0.00 1.21 0.78 83 1008.2
20260506164503 56 352 4.0 11.0 0.00 1.23 0.78 84 1008.2
20260506163603 56 9 4.0 7.0 0.00 1.24 0.78 86 1008.0
20260506162917 56 352 3.0 8.0 0.00 1.26 0.78 86 1007.8
20260506161803 56 300 3.0 9.0 0.00 1.27 0.78 86 1007.9
20260506160903 56 300 6.0 10.0 0.00 1.28 0.78 86 1007.6
20260506160008 57 356 7.0 11.0 0.00 1.28 0.78 85 1007.2
20260506155617 57 4 7.0 11.0 0.00 1.28 0.78 83 1007.2
20260506154503 57 20 6.0 14.0 0.00 1.28 0.78 81 1007.5
20260506153603 57 32 6.0 13.0 0.00 1.28 0.78 82 1007.7
20260506152704 57 24 9.0 13.0 0.00 1.29 0.78 82 1007.7
20260506151803 57 19 9.0 14.0 0.00 1.29 0.78 83 1007.7
20260506150903 56 5 9.0 16.0 0.00 1.29 0.78 85 1007.7
20260506150003 55 9 7.0 13.0 0.00 1.29 0.78 87 1008.0
20260506145403 55 19 4.0 13.0 0.00 1.30 0.78 87 1008.2
20260506144503 56 29 4.0 6.0 0.00 1.31 0.78 92 1008.1
20260506143604 55 10 7.0 15.0 0.00 1.31 0.78 91 1008.1
20260506142916 54 15 7.0 15.0 0.00 1.31 0.78 88 1008.1
20260506141804 55 25 8.0 13.0 0.00 1.31 0.78 91 1008.3
20260506141117 56 19 8.0 14.0 0.01 1.31 0.78 93 1008.2
20260506140003 55 355 5.0 13.0 0.09 1.31 0.78 94 1008.1
20260506135403 55 299 4.0 10.0 0.14 1.31 0.78 94 1008.1
20260506134503 54 353 5.0 10.0 0.24 1.31 0.78 95 1008.1
20260506133603 54 23 5.0 9.0 0.28 1.32 0.78 94 1008.2
20260506132703 53 10 5.0 9.0 0.30 1.32 0.78 94 1008.4
20260506132017 52 1 3.0 9.0 0.30 1.33 0.78 94 1008.4
20260506130903 52 276 2.0 4.0 0.28 1.31 0.76 94 1008.5
20260506130003 52 31 5.0 9.0 0.21 1.24 0.69 93 1008.6
20260506125403 52 261 5.0 15.0 0.16 1.20 0.64 92 1008.2
20260506124717 53 256 5.0 15.0 0.07 1.11 0.55 90 1008.2
20260506123603 57 173 5.0 10.0 0.02 1.06 0.50 84 1008.4
20260506122703 59 99 10.0 13.0 0.00 1.05 0.48 88 1008.2
20260506121803 60 98 10.0 16.0 0.00 1.05 0.48 87 1008.0
20260506120903 60 90 7.0 19.0 0.00 1.05 0.48 86 1007.8
20260506120003 60 76 6.0 13.0 0.00 1.05 0.48 87 1007.8
20260506115403 60 78 8.0 13.0 0.00 1.06 0.48 89 1007.7
20260506114717 59 87 8.0 12.0 0.02 1.06 0.48 88 1007.8
20260506113603 58 101 9.0 15.0 0.02 1.06 0.48 88 1007.9
20260506112703 59 101 8.0 15.0 0.02 1.06 0.48 89 1007.9
20260506112016 59 99 8.0 16.0 0.02 1.07 0.48 89 1008.0
20260506110903 58 101 9.0 19.0 0.02 1.09 0.48 91 1008.0
20260506110003 57 91 7.0 19.0 0.02 1.11 0.48 92 1008.0
20260506105403 57 91 8.0 16.0 0.02 1.11 0.48 94 1008.1
20260506104503 56 99 8.0 16.0 0.00 1.10 0.46 93 1008.1
20260506103603 56 93 8.0 13.0 0.00 1.11 0.46 93 1008.2
20260506102703 56 93 7.0 19.0 0.00 1.12 0.46 93 1008.3
20260506101803 56 80 7.0 19.0 0.00 1.12 0.46 94 1008.2
20260506100903 56 89 9.0 18.0 0.00 1.12 0.46 94 1008.2
20260506100004 56 89 10.0 16.0 0.00 1.13 0.46 94 1008.3
20260506095403 56 91 11.0 21.0 0.00 1.14 0.46 94 1008.2
20260506094503 55 88 10.0 24.0 0.00 1.16 0.46 94 1008.0
20260506093603 55 87 11.0 19.0 0.00 1.17 0.46 94 1008.1
20260506092703 55 85 10.0 18.0 0.00 1.17 0.46 94 1008.1
20260506091803 55 80 8.0 18.0 0.00 1.18 0.46 95 1008.1
20260506090903 55 77 7.0 17.0 0.00 1.19 0.46 95 1008.1
20260506090003 55 81 8.0 15.0 0.00 1.19 0.46 96 1008.0
20260506085618 55 83 9.0 15.0 0.00 1.19 0.46 96 1008.0
20260506084717 55 81 10.0 18.0 0.00 1.20 0.46 96 1008.0
20260506083603 55 82 8.0 21.0 0.00 1.20 0.46 96 1008.1
20260506082704 55 86 11.0 19.0 0.00 1.20 0.46 96 1008.2
20260506081803 55 89 11.0 21.0 0.01 1.20 0.46 96 1008.3
20260506080903 55 90 10.0 22.0 0.01 1.20 0.46 95 1008.2
20260506080218 55 87 11.0 19.0 0.01 1.20 0.46 96 1008.1
20260506072703 55 94 8.0 14.0 0.02 1.20 0.46 100 1008.3
20260506072017 54 91 9.0 13.0 0.01 1.20 0.46 97 1008.3
20260506070903 54 84 9.0 19.0 0.01 1.20 0.46 100 1008.3
20260506061803 54 92 6.0 13.0 0.00 1.32 0.45 100 1008.8
20260506060903 54 94 5.0 12.0 0.01 1.34 0.45 100 1008.7
20260506051118 54 92 7.0 11.0 0.01 1.41 0.45 100 1008.9
20260506044503 54 95 7.0 12.0 0.00 1.42 0.44 100 1009.1
20260506043603 54 97 7.0 14.0 0.01 1.42 0.44 100 1009.1
20260506042703 54 100 8.0 13.0 0.01 1.42 0.44 100 1009.4
20260506041803 54 97 9.0 16.0 0.02 1.43 0.44 100 1009.4
20260506040904 54 95 8.0 16.0 0.03 1.43 0.44 100 1009.4
20260506040003 54 99 8.0 15.0 0.19 1.43 0.44 100 1009.6
20260506035403 54 100 8.0 15.0 0.38 1.43 0.44 100 1009.6
20260506034503 54 100 7.0 11.0 0.39 1.43 0.44 100 1009.4
20260506033604 54 96 5.0 14.0 0.40 1.43 0.43 100 1009.5
20260506032703 54 94 4.0 14.0 0.41 1.43 0.43 100 1009.6
20260506031803 54 105 4.0 10.0 0.40 1.42 0.43 100 1009.7
20260506030904 54 89 3.0 10.0 0.39 1.40 0.41 100 1009.7
20260506030003 54 90 1.0 10.0 0.23 1.24 0.25 100 1009.9
20260506025618 54 7 0.0 2.0 0.06 1.08 0.09 100 1010.1
20260506024503 54 5 0.0 2.0 0.03 1.05 0.06 100 1010.2
20260506023603 54 5 0.0 1.0 0.01 1.02 0.03 100 1010.3
20260506022703 54 360 1.0 2.0 0.00 1.02 0.02 100 1010.4
20260506021803 54 217 0.0 2.0 0.00 1.02 0.02 100 1010.4
20260506020903 54 213 0.0 1.0 0.00 1.02 0.02 100 1010.5
20260506020003 54 213 0.0 1.0 0.00 1.02 0.02 100 1010.7
20260506015403 54 0 0.0 0.0 0.00 1.02 0.02 100 1010.6
20260506014503 54 213 0.0 1.0 0.00 1.02 0.02 100 1010.6
20260506013818 54 213 0.0 1.0 0.00 1.02 0.02 100 1010.6
20260506012917 54 213 1.0 2.0 0.00 1.02 0.02 97 1010.6
20260506011803 54 205 1.0 3.0 0.00 1.02 0.02 97 1010.8
20260506010903 54 201 1.0 3.0 0.00 1.02 0.02 97 1010.9
20260506010004 54 160 0.0 3.0 0.00 1.02 0.02 100 1011.0
20260506005617 54 101 0.0 1.0 0.00 1.02 0.02 100 1011.0
20260506004504 54 97 2.0 3.0 0.00 1.02 0.02 100 1011.2
20260506003603 54 95 1.0 3.0 0.00 1.02 0.02 100 1011.3